Theta_e
310 308 306 306 306 307 308 309 309 308 308 308 307 311 315 316 317 318 316 314 314 315 315 315 315 314 313 312 311 311 311 311 310 310 310 309 309 310 310 310 311 311 311 312 312 312 312 312 311 311 311 310 309 309 309 309 307 310 315 311 308 308 305 306 306 303 304 304 302 303 304 303 302 302 302 301 302 302 302 302 302 302 303 303 303 302 301 301
311 309 306 306 306 307 307 307 308 307 307 308 308 312 316 316 317 318 316 315 315 315 315 315 315 312 311 311 310 310 310 310 310 310 309 309 310 310 310 310 311 311 311 312 311 312 312 312 312 311 311 310 309 310 309 309 307 310 315 313 310 310 305 303 304 302 303 303 302 302 303 304 303 302 302 301 301 301 301 301 301 302 302 303 303 302 301 301
312 310 307 306 306 306 307 307 308 307 307 307 308 312 315 316 317 318 317 316 316 316 316 315 313 311 310 310 309 309 309 310 310 309 309 309 309 309 310 311 311 311 311 311 311 311 312 312 313 312 311 310 308 309 309 309 308 306 311 313 308 306 303 302 303 303 303 303 302 302 302 303 303 302 302 301 301 300 300 301 301 301 301 302 302 302 301 301
312 311 308 306 306 306 307 307 307 306 306 307 308 312 315 316 317 317 319 318 318 318 318 316 312 311 311 310 311 311 311 310 309 309 309 309 309 310 310 311 310 310 310 310 311 311 311 311 311 311 310 309 308 309 307 307 308 305 309 312 305 302 303 302 303 304 303 303 302 302 301 302 302 302 302 301 301 301 300 302 302 302 302 302 302 301 301 301
312 311 308 306 306 306 306 306 306 306 306 307 308 312 314 316 316 317 318 319 320 319 318 316 313 312 312 311 312 313 314 311 309 309 309 309 310 310 310 311 311 310 310 310 310 310 310 311 310 310 309 307 306 308 306 305 307 305 304 306 303 303 303 302 303 304 303 303 303 302 301 302 302 302 302 302 303 303 302 303 303 303 303 303 302 301 301 301
312 311 309 307 306 307 307 306 306 306 307 307 309 312 314 315 316 316 318 320 320 318 317 315 314 314 313 312 313 314 314 311 308 309 309 309 310 310 310 311 311 311 311 310 310 310 310 310 310 308 307 305 304 306 306 305 306 305 303 302 302 303 303 302 304 304 303 303 303 302 302 302 302 302 302 302 303 304 303 303 303 303 303 303 302 302 302 302
312 311 309 308 307 307 308 307 307 307 307 308 310 312 314 315 315 316 318 320 319 317 315 315 315 315 314 313 314 313 311 309 308 310 309 309 309 309 310 310 311 311 311 311 310 310 310 310 310 307 305 305 304 303 304 305 305 305 304 302 302 303 303 303 303 303 303 303 303 302 302 302 302 303 303 302 303 303 303 303 303 303 303 303 303 302 302 302
312 311 309 308 308 308 309 309 308 308 309 310 311 313 314 314 315 316 318 319 318 317 316 316 316 314 313 312 312 311 309 308 308 310 309 309 309 309 310 310 311 311 310 310 310 310 310 310 309 307 305 305 305 303 304 305 304 303 303 302 302 303 303 303 303 303 303 303 303 303 303 303 303 303 303 303 303 303 303 303 303 303 303 303 303 303 303 302
311 311 310 309 309 309 310 310 309 309 310 311 312 313 313 314 315 317 319 318 317 317 317 318 316 312 311 311 311 310 308 307 309 309 309 309 309 309 310 310 310 311 310 310 310 310 310 310 309 308 306 304 305 304 304 306 305 303 302 302 303 303 303 303 303 303 303 303 304 303 303 303 303 303 303 304 303 303 303 303 303 303 303 303 303 303 303 303
311 311 310 309 309 310 310 310 310 310 310 311 312 312 313 314 315 317 318 317 317 317 318 317 315 311 310 311 311 310 307 307 308 309 309 309 309 309 310 310 310 311 310 310 310 310 310 310 308 308 307 305 305 304 304 305 304 303 302 303 303 303 303 303 303 303 303 304 304 304 303 303 303 302 304 304 303 303 303 303 303 303 303 304 304 303 303 303
311 311 310 310 310 310 310 310 310 310 311 312 312 312 313 314 315 317 317 317 317 318 318 316 314 312 310 311 311 309 307 308 308 309 308 309 309 309 310 310 310 311 311 311 310 310 310 309 309 309 308 306 304 303 303 303 303 303 303 303 303 303 303 303 303 303 303 304 304 304 303 303 303 303 305 304 304 303 303 303 303 303 304 304 304 304 303 304
311 311 310 310 310 310 309 309 309 310 311 311 312 313 313 314 316 317 317 317 317 317 317 315 313 312 311 310 309 307 307 307 308 308 308 309 309 310 310 310 310 310 311 310 310 309 309 309 310 310 308 306 304 304 303 302 303 303 303 304 303 304 304 303 303 304 304 304 304 303 304 306 304 304 305 304 304 304 303 303 303 303 303 303 303 303 303 304
310 311 310 310 310 310 310 309 310 311 311 312 312 313 313 314 315 317 317 317 316 316 315 314 310 310 311 309 307 307 307 308 308 308 308 309 309 310 309 309 310 309 310 310 310 309 309 310 310 309 307 305 304 304 304 303 304 304 304 305 306 307 307 304 303 304 303 304 304 303 307 312 310 305 305 305 304 303 303 303 303 303 303 303 303 303 303 303
310 311 311 310 310 310 310 310 311 311 311 311 311 313 313 314 315 316 317 316 316 315 314 312 310 310 310 307 306 307 307 307 307 308 308 308 309 309 309 309 309 309 309 309 309 309 309 309 309 308 306 305 304 303 304 303 304 305 304 306 310 310 308 305 303 304 304 304 304 303 308 316 314 307 304 305 304 304 304 303 303 303 303 303 303 303 304 303
310 311 311 311 310 310 310 310 311 311 311 311 311 312 313 314 315 316 316 316 316 315 314 312 310 310 309 306 306 306 307 307 307 308 308 308 309 309 309 309 309 309 309 309 309 308 309 309 309 307 304 305 304 304 306 305 304 306 305 308 310 309 308 306 304 304 305 304 303 303 310 315 312 307 305 304 304 303 304 304 304 304 303 304 304 304 304 304
309 310 311 311 310 310 311 311 311 311 311 310 310 311 313 314 315 315 316 316 316 315 314 311 310 310 309 307 306 306 306 307 307 308 308 308 308 309 309 308 309 309 308 308 308 308 308 308 308 305 305 305 305 309 312 311 311 311 309 310 311 310 309 307 304 303 305 305 303 304 309 313 308 305 305 304 304 303 303 304 303 304 304 304 304 304 304 304
308 309 310 310 310 311 311 311 312 311 311 310 310 311 312 313 313 314 315 315 315 315 312 310 309 310 309 307 306 307 307 307 307 307 307 308 308 308 308 308 308 308 308 309 309 309 310 309 308 306 306 304 305 318 320 312 315 313 309 311 310 308 308 308 306 303 303 304 305 304 305 310 308 305 305 304 304 303 303 304 304 304 304 304 305 304 304 304
308 308 309 309 310 311 311 312 312 312 310 309 310 310 311 312 313 313 313 314 314 313 310 309 309 310 310 307 307 306 306 307 307 307 308 307 308 308 308 308 308 308 309 310 310 311 310 309 308 308 310 308 309 324 323 313 317 314 311 312 307 306 307 309 309 304 303 304 306 305 305 310 309 304 305 304 303 303 303 304 304 304 304 304 304 304 305 305
308 308 309 308 309 310 312 312 312 312 310 309 310 310 311 311 312 313 312 312 313 313 312 310 312 314 310 307 307 307 307 307 307 308 308 308 309 308 309 309 309 310 311 312 313 311 310 311 311 311 312 309 308 314 313 311 315 312 311 313 309 309 307 307 308 304 303 306 307 308 308 310 311 307 306 305 304 303 304 304 304 304 304 304 304 305 305 305
308 308 308 308 308 310 311 311 312 311 309 309 309 309 310 310 311 312 311 311 311 310 310 309 310 310 308 306 306 307 307 307 307 307 308 308 309 309 311 311 311 313 313 314 314 308 309 315 315 314 312 309 307 306 306 305 307 307 310 314 312 312 309 307 307 304 302 307 309 308 308 309 312 310 304 304 304 302 303 303 304 305 304 305 305 305 305 305
308 308 308 308 308 310 310 311 311 310 309 309 309 309 309 309 311 311 309 309 307 307 307 307 307 307 307 307 307 308 308 308 307 307 308 309 310 311 312 312 312 315 311 310 312 308 311 316 312 312 310 306 304 303 304 305 306 307 311 318 315 311 311 307 305 304 302 305 308 307 309 313 316 311 303 302 302 301 304 304 304 306 305 305 305 305 306 306
308 307 308 307 309 310 309 310 310 309 309 308 309 310 309 310 312 311 309 307 306 306 306 306 307 307 307 307 308 309 308 307 307 307 308 308 310 312 312 312 315 317 308 306 313 313 315 312 306 306 304 301 302 304 306 306 309 312 312 319 317 310 310 308 306 305 302 305 311 309 309 315 317 309 302 303 303 303 306 306 306 307 306 306 306 306 306 306
307 308 308 308 309 309 309 310 309 309 309 309 311 310 310 310 310 310 309 308 307 306 306 307 307 306 307 308 308 309 308 307 307 307 308 308 310 311 310 314 321 323 314 313 319 316 311 307 304 302 301 304 309 309 308 307 311 315 315 318 315 309 310 309 308 308 306 305 308 308 310 319 319 310 305 304 304 305 306 306 306 306 306 306 306 307 306 306
308 307 308 309 309 309 309 309 308 310 309 310 312 310 311 310 309 310 309 307 307 307 307 306 306 307 307 308 308 308 307 306 307 306 307 309 310 311 309 312 320 323 314 314 321 318 308 303 302 302 302 306 310 312 313 314 313 314 316 317 313 310 309 309 310 311 311 307 305 309 316 326 327 320 315 309 303 304 305 305 306 306 306 307 306 307 307 306
308 308 308 309 309 309 309 308 309 310 309 311 311 310 310 308 309 310 309 310 308 308 310 308 307 308 307 308 308 307 307 305 307 306 307 310 310 311 309 308 316 318 309 307 315 314 306 301 301 307 312 311 310 313 313 314 316 315 312 311 310 309 309 313 316 315 317 312 307 310 315 325 331 324 319 313 307 306 306 305 307 307 307 307 307 307 307 307
307 308 309 308 309 309 309 309 309 309 309 310 309 310 309 309 312 310 314 322 314 306 311 312 309 309 307 307 307 307 307 306 306 306 307 309 309 310 311 309 310 313 310 307 309 308 305 302 301 306 315 316 314 314 307 308 320 317 309 307 308 309 310 317 319 314 315 313 309 312 315 321 329 325 319 316 312 312 309 306 307 308 307 307 307 307 307 307
308 308 308 309 309 308 309 309 309 309 309 308 308 310 309 310 312 309 314 320 312 307 312 312 309 309 308 307 306 307 307 307 306 306 307 308 309 310 311 312 310 310 307 307 308 306 305 307 306 308 314 315 315 312 306 306 317 314 308 307 309 310 311 316 318 315 314 312 312 318 318 315 323 328 321 314 312 312 312 310 308 308 308 308 308 307 307 307
308 307 308 309 308 309 309 308 309 309 308 308 309 309 310 311 310 312 318 312 304 310 313 309 309 309 307 306 306 307 308 308 308 307 307 307 309 309 311 311 309 309 304 307 310 307 303 308 309 310 314 313 311 308 304 305 312 311 305 305 307 308 311 314 318 320 315 312 316 322 314 311 326 334 320 311 310 312 315 314 310 308 308 307 308 307 307 307
307 307 308 308 308 309 309 309 309 309 308 309 309 310 311 310 308 314 320 309 304 311 310 307 309 308 307 307 307 307 307 308 309 308 307 308 309 309 311 307 304 305 302 305 314 306 301 305 304 304 310 310 307 303 300 305 311 307 302 304 307 308 310 310 315 321 318 316 322 321 311 310 326 334 319 310 313 314 315 314 309 307 308 307 308 308 308 308
307 308 307 308 309 309 309 309 308 308 309 308 309 311 309 311 319 318 311 307 308 309 308 308 309 308 308 307 306 308 307 307 309 308 307 308 308 306 308 306 303 308 309 308 311 306 301 303 302 302 306 305 302 301 301 302 305 304 305 310 311 312 312 310 317 322 318 323 327 317 310 310 318 329 321 313 317 319 316 314 308 306 308 307 308 308 307 308
307 307 307 309 309 309 309 308 308 308 308 309 309 310 308 314 327 322 305 305 311 309 307 309 309 311 312 307 308 311 308 308 308 308 310 310 310 309 310 308 306 314 325 320 310 306 306 305 303 301 301 302 303 305 303 301 302 305 312 316 314 318 318 316 326 323 315 328 328 314 310 309 313 326 323 316 320 317 312 313 310 306 308 308 308 308 307 308
307 307 308 309 308 309 309 308 310 308 307 310 308 310 316 317 319 318 309 307 311 310 309 310 308 312 316 311 312 314 310 308 307 309 312 312 314 313 310 313 312 311 320 320 310 310 312 308 303 301 301 301 305 310 306 304 306 308 316 323 322 325 324 322 330 323 318 327 318 308 310 310 314 324 324 320 319 312 308 311 311 308 309 309 308 308 308 308
307 307 308 309 309 309 309 308 309 307 308 311 307 312 327 323 313 314 312 310 311 308 308 311 309 310 314 311 311 311 308 307 308 308 307 308 312 310 306 308 311 310 314 315 311 313 312 307 305 306 304 300 303 311 312 311 312 310 314 323 325 324 322 323 327 319 319 324 313 306 310 315 318 318 319 320 314 311 311 311 311 310 309 309 308 309 308 309
307 308 308 309 309 308 309 308 306 309 309 309 312 316 320 317 311 311 311 310 310 308 308 310 309 309 311 310 309 307 307 307 308 311 310 309 312 312 310 306 305 315 323 316 312 313 311 309 307 305 305 302 301 307 309 309 311 311 312 316 320 324 321 321 324 321 322 325 317 309 312 323 324 313 312 312 308 310 312 310 310 310 309 309 309 309 309 309
307 307 307 308 309 308 310 307 306 311 308 310 321 321 317 316 315 316 315 311 310 311 308 308 312 312 311 311 309 306 308 308 307 311 312 311 314 316 316 313 308 313 319 314 312 310 308 308 307 302 301 301 303 302 300 305 310 309 309 312 314 320 323 319 315 316 318 318 319 315 317 326 321 310 309 307 306 309 308 309 310 308 309 309 308 309 309 310
308 307 308 308 308 308 309 308 308 309 308 315 323 321 322 322 315 314 314 310 312 313 309 310 314 314 311 311 311 308 308 307 307 310 310 310 313 313 315 316 310 309 312 314 315 311 307 308 306 303 301 299 301 301 298 303 307 306 309 315 310 308 318 319 311 311 312 313 321 319 318 324 318 314 314 308 308 310 306 308 310 308 310 309 309 310 309 309
308 308 308 308 308 308 309 308 309 307 307 316 320 318 321 318 310 312 312 308 310 312 314 317 312 310 311 310 311 312 309 307 307 309 310 309 310 312 315 314 306 306 308 309 312 314 312 309 307 305 305 301 299 300 300 300 303 306 310 312 307 304 311 315 314 319 316 316 326 322 316 322 321 320 319 311 311 313 308 306 307 308 309 308 309 310 310 310
308 307 307 308 308 308 308 308 309 309 308 312 317 316 313 310 306 310 310 306 309 312 317 322 311 308 312 311 312 312 309 310 312 311 311 311 309 310 314 313 306 304 304 305 308 310 311 313 311 303 305 304 298 300 305 302 299 304 306 304 306 311 315 315 316 322 318 316 325 326 319 318 319 322 321 314 313 314 311 306 304 306 307 308 310 310 310 310
307 307 307 308 308 308 309 309 308 309 308 313 322 317 310 310 307 307 309 308 310 312 313 316 311 309 312 313 314 312 308 312 316 312 309 309 308 307 309 310 307 304 303 304 307 308 307 311 314 306 302 303 301 303 311 310 301 300 303 303 306 313 319 317 314 319 321 317 320 327 328 322 321 325 323 318 315 312 312 310 305 306 308 309 310 310 310 310
306 307 308 308 309 309 309 309 308 310 311 315 324 318 309 311 309 306 309 309 308 311 312 315 314 312 312 311 313 312 309 313 315 312 309 308 309 309 307 306 307 305 304 302 305 310 308 305 312 311 302 302 308 309 312 315 309 305 308 310 308 310 313 313 312 315 321 322 321 323 326 329 326 322 321 321 316 309 309 310 306 306 309 310 310 311 310 310
306 308 309 307 309 309 308 309 309 311 314 313 315 313 308 309 308 306 308 309 307 308 312 317 316 314 316 315 314 312 310 314 314 312 310 308 309 310 306 303 305 304 304 304 306 309 308 308 316 316 310 312 318 308 301 305 306 307 313 315 313 314 315 315 315 315 314 317 323 321 319 326 325 314 315 317 311 307 307 307 307 308 309 311 311 311 311 310
307 310 310 307 309 308 308 311 307 309 318 315 310 309 308 307 307 306 307 307 307 306 308 313 313 315 319 317 315 313 311 314 312 311 311 309 310 311 306 302 304 303 305 308 307 304 306 313 316 317 319 316 308 299 296 298 298 301 305 308 311 315 319 320 319 319 314 310 316 317 315 324 324 308 306 309 305 306 307 306 307 308 310 312 311 311 311 310
308 310 309 307 309 307 309 312 308 310 317 312 306 306 308 307 306 307 307 306 308 307 307 312 311 312 313 309 311 313 311 312 313 312 315 314 311 307 302 302 303 302 305 309 308 303 305 312 313 317 326 316 304 298 296 294 296 302 304 303 307 313 318 323 319 318 317 312 314 315 314 326 326 306 303 308 306 307 307 307 308 309 310 312 311 311 311 310
308 310 308 307 308 308 311 314 314 317 314 305 305 307 307 307 306 307 309 308 308 307 309 313 311 308 308 306 309 313 309 309 312 310 311 314 309 301 300 302 302 302 305 308 309 304 305 313 314 314 320 321 316 311 306 302 301 307 310 306 308 310 312 316 312 310 316 318 319 320 319 327 326 310 307 308 306 307 307 307 308 309 311 312 311 311 310 309
309 309 307 307 308 308 311 312 315 320 314 308 310 309 307 308 306 306 309 308 306 306 309 311 308 307 308 306 309 311 305 306 310 309 307 311 307 300 300 302 301 302 303 304 304 303 306 313 315 315 315 314 317 319 320 318 310 308 310 308 308 307 308 314 315 312 317 317 316 321 322 321 321 320 319 314 310 310 309 307 308 309 311 312 311 311 310 309
309 310 308 307 307 307 310 310 309 315 315 313 311 308 309 311 307 305 307 307 306 306 307 308 306 307 309 307 309 312 307 304 307 308 310 313 308 301 299 300 300 301 302 302 302 304 308 310 312 318 318 314 319 323 316 313 312 311 311 309 309 307 308 315 318 316 319 317 314 318 318 316 316 318 320 320 320 315 309 308 309 309 311 311 311 311 310 309
309 311 310 308 308 308 309 309 307 310 313 313 310 308 311 313 308 306 307 306 306 306 306 306 306 308 311 310 311 313 309 306 306 307 311 312 306 300 298 299 300 301 302 301 301 304 310 311 310 314 315 314 320 319 309 307 312 315 314 313 312 308 306 312 315 316 319 318 315 316 316 315 315 314 315 320 321 314 307 308 310 311 311 311 311 311 310 309
309 310 308 309 313 313 310 309 309 307 307 308 309 308 311 314 311 310 309 305 305 306 307 308 308 310 313 312 313 313 309 308 308 308 310 309 305 302 301 299 299 300 302 300 300 305 312 313 310 309 312 315 315 312 309 309 311 313 314 315 314 310 308 310 312 313 316 316 313 317 320 318 315 313 313 314 314 312 310 311 312 311 311 311 310 310 310 309
308 309 307 307 312 311 308 309 309 307 305 307 310 310 311 315 313 310 307 305 307 306 305 310 315 314 309 307 313 316 313 312 313 312 311 310 307 306 307 305 301 299 300 300 300 302 308 315 312 306 310 316 313 307 306 307 309 311 312 312 311 310 308 309 310 310 312 313 313 315 317 315 312 311 311 309 309 311 311 312 312 311 311 311 310 310 310 309
308 309 308 307 308 307 307 307 308 309 308 307 310 310 310 315 315 309 305 308 314 310 304 309 318 313 304 305 315 319 315 314 316 315 313 312 309 308 311 311 307 300 299 302 301 300 304 315 314 308 311 318 312 305 304 305 307 309 309 308 308 309 307 306 306 307 308 310 310 310 311 311 309 308 309 308 308 309 310 311 311 311 312 311 309 310 309 309
309 309 308 309 308 306 307 306 306 311 312 309 310 310 309 313 314 309 306 308 312 311 307 308 313 310 304 306 314 315 310 309 312 312 310 311 311 309 308 308 308 306 303 302 303 302 303 309 310 307 313 319 311 306 307 306 304 306 309 307 306 307 310 308 306 306 307 309 309 309 309 310 309 308 308 309 308 307 308 309 310 311 312 311 310 310 309 309
308 309 309 309 310 307 305 305 305 310 313 310 308 308 309 310 308 307 309 308 305 307 308 305 307 311 311 310 311 311 308 307 309 310 307 307 308 307 306 305 306 308 306 302 304 305 306 310 313 310 313 318 310 306 310 310 307 313 319 315 309 307 307 307 307 306 307 308 309 310 310 310 309 308 310 310 307 305 307 309 310 311 311 311 311 311 311 311
Wind_Speed
11 13 13 14 15 16 16 16 16 16 18 20 21 23 23 22 22 22 22 21 20 17 16 15 14 14 14 14 13 12 10 10 15 24 24 21 18 17 17 15 15 16 17 19 21 23 22 22 23 22 25 27 26 23 18 14 10 7 5 5 3 2 3 5 6 6 4 5 8 12 12 9 6 6 7 6 6 8 7 7 6 6 7 6 5 6 7 6
10 11 12 14 15 17 17 17 17 17 19 21 22 23 23 22 22 23 22 21 19 16 16 14 14 15 16 17 18 19 14 16 26 29 22 16 15 15 14 14 14 13 13 17 20 20 20 20 19 19 25 25 18 14 12 11 12 7 3 5 2 3 2 4 10 9 6 8 12 11 11 11 9 9 9 5 6 9 7 7 7 7 7 6 7 8 7 6
10 11 12 14 15 17 17 17 17 18 20 21 22 23 23 22 21 22 21 19 17 15 14 13 14 16 18 19 20 22 19 25 27 24 18 14 14 14 14 15 15 14 14 17 17 15 14 16 15 16 25 24 14 14 14 11 10 7 5 5 1 4 3 5 14 13 9 12 13 9 9 11 12 11 9 6 6 9 10 10 10 10 10 9 9 8 8 9
10 11 12 14 15 17 17 17 18 19 20 21 23 23 23 22 20 20 20 18 16 14 13 13 13 15 16 17 17 17 18 22 18 18 13 13 13 13 14 15 15 14 15 16 15 14 14 15 15 17 24 20 14 15 14 10 5 6 5 5 5 7 6 6 15 13 11 12 11 11 9 9 12 10 9 7 6 7 13 14 9 9 11 10 11 11 10 11
11 11 12 14 15 16 17 18 19 20 21 22 23 23 23 22 20 19 19 17 15 14 13 11 11 11 11 11 11 8 11 12 9 11 11 10 12 13 15 15 13 13 13 16 17 17 16 17 18 18 17 13 11 10 10 12 12 9 6 8 10 10 6 5 14 14 12 11 11 13 9 8 11 10 11 10 7 7 12 13 8 6 8 8 9 11 12 12
12 11 12 13 15 15 16 18 19 20 21 22 23 23 22 21 20 19 18 17 15 14 11 9 8 6 6 8 5 2 6 6 4 8 9 9 12 14 15 13 11 10 9 13 16 16 15 14 14 13 11 9 11 9 6 8 10 7 5 9 12 12 10 7 13 13 12 11 12 13 9 10 10 8 11 13 12 9 7 9 8 6 7 5 6 9 11 11
12 12 12 13 14 14 16 18 20 21 21 22 22 22 21 21 19 19 18 17 15 14 11 9 7 5 5 6 2 6 15 11 6 8 9 10 13 13 14 11 8 6 7 11 12 12 9 10 14 15 12 9 12 12 11 13 13 10 5 8 13 14 13 9 11 12 10 10 10 9 7 9 9 6 8 13 13 9 6 7 7 7 8 7 8 9 9 9
13 13 12 13 13 15 17 19 20 20 21 21 21 20 20 19 19 18 18 17 16 14 11 9 8 7 6 3 9 20 20 13 9 10 10 11 12 12 12 10 7 5 8 11 10 11 11 14 16 13 11 9 10 13 16 19 15 7 5 10 14 13 12 10 11 11 9 9 7 7 7 8 9 6 8 13 13 10 9 8 7 8 10 9 8 8 8 9
13 14 13 13 14 15 17 19 19 19 20 20 20 19 18 19 19 18 18 17 16 13 10 9 8 8 7 8 19 22 14 11 11 10 10 11 12 11 9 7 6 5 10 15 14 12 10 10 8 7 13 14 14 12 9 9 5 3 9 14 13 12 11 9 9 9 9 8 6 5 7 8 8 6 9 14 14 12 11 10 9 9 10 9 8 7 7 8
14 15 15 14 15 15 16 17 18 18 19 19 19 18 17 18 18 18 18 16 14 12 10 9 8 11 11 14 22 15 8 11 12 10 11 11 11 9 6 7 7 6 11 14 11 7 5 7 13 19 22 17 11 7 3 4 8 13 17 17 14 11 8 6 6 8 8 7 4 4 5 7 6 4 7 12 14 14 13 12 11 10 10 9 8 8 7 8
14 15 16 16 15 15 15 15 16 17 18 18 18 17 17 17 17 17 16 14 12 10 9 8 8 9 9 14 21 13 6 13 13 11 12 9 9 7 6 8 8 7 8 8 9 13 16 20 22 17 13 12 11 12 12 14 19 21 20 15 9 6 4 4 5 7 6 5 5 3 3 4 4 4 8 10 13 15 15 14 13 12 11 10 9 8 8 8
15 16 16 16 16 15 14 14 16 17 17 17 16 16 17 17 17 16 15 13 10 9 8 7 7 6 8 15 23 16 10 15 14 14 14 11 10 8 10 14 15 14 9 11 19 22 19 14 8 5 10 16 11 11 14 19 21 18 14 8 4 4 1 3 4 4 4 4 4 2 3 4 4 8 9 9 14 15 15 15 14 14 12 11 10 10 10 9
15 16 15 15 15 15 15 16 18 18 17 16 15 15 16 17 17 15 14 12 9 9 7 7 9 7 10 16 20 15 14 16 14 14 15 14 13 12 14 15 15 15 10 12 18 14 6 2 4 15 20 16 9 10 16 18 16 8 5 5 3 5 4 4 4 4 4 3 4 1 2 5 7 12 9 9 15 16 17 17 15 14 13 12 11 11 12 11
16 16 15 15 14 15 16 17 19 18 16 15 14 15 16 17 17 14 13 11 9 8 5 6 7 7 12 16 15 16 16 16 12 12 14 13 11 11 12 11 11 12 9 10 12 8 7 7 14 22 19 14 18 20 14 9 6 3 2 3 2 2 3 4 4 3 2 2 4 2 1 5 7 9 10 11 16 17 18 18 16 15 14 13 12 12 12 11
16 16 15 14 14 15 17 19 19 17 15 14 14 15 16 16 16 15 13 11 9 8 6 5 3 8 17 17 13 15 15 14 12 12 14 12 11 11 11 12 14 16 16 16 16 15 14 14 18 21 19 21 24 16 5 4 3 3 2 2 2 2 3 5 4 6 3 3 4 4 1 6 7 7 10 13 16 19 18 16 16 15 13 13 12 12 12 10
15 15 15 15 14 15 18 19 18 16 15 14 14 15 15 16 15 14 13 11 10 7 5 5 5 14 17 12 11 14 12 13 13 13 13 12 13 14 14 16 18 20 20 20 19 18 14 13 19 22 18 16 13 6 5 4 3 4 1 2 3 2 1 3 3 5 3 1 2 3 2 4 4 3 8 14 17 19 20 17 16 15 13 13 12 13 13 12
14 14 15 16 15 16 18 18 16 15 14 15 16 15 15 16 15 14 13 12 10 7 6 8 11 14 12 8 10 11 11 12 12 12 13 14 15 16 17 18 20 21 19 17 14 12 9 10 15 13 8 6 3 4 5 3 2 3 2 0 3 2 1 1 2 4 2 1 1 1 3 6 7 7 8 15 18 20 22 20 17 16 15 14 14 14 14 14
14 14 15 16 16 17 17 17 16 14 14 16 16 16 16 16 15 14 13 11 9 7 8 10 11 8 6 7 9 9 11 11 11 13 14 15 16 16 16 17 18 17 14 11 7 6 6 7 9 4 4 5 4 4 4 2 4 3 1 1 2 1 1 2 2 3 1 1 2 1 3 9 12 13 9 14 20 21 22 21 18 17 17 16 16 16 15 16
13 14 16 15 15 17 18 17 15 14 15 16 17 17 17 16 15 14 12 11 10 7 5 5 5 4 5 8 9 9 11 11 11 13 13 13 13 13 14 14 13 10 8 5 4 6 6 5 6 4 3 3 2 4 4 4 4 4 4 4 3 3 2 3 3 3 1 1 3 3 5 8 10 12 10 9 20 23 22 21 19 19 19 18 17 16 16 16
14 14 16 15 15 18 19 18 16 15 15 16 18 18 16 16 11 8 9 11 13 11 7 8 10 10 12 11 10 9 9 10 10 10 9 9 10 10 10 9 8 6 5 1 2 5 5 5 5 3 4 2 3 3 2 1 3 2 2 3 3 3 2 3 3 3 1 1 3 4 5 8 9 11 11 6 14 21 22 23 22 21 20 19 17 16 16 15
14 15 17 16 17 18 19 19 17 15 15 16 18 14 12 13 7 7 14 17 17 15 12 14 14 13 13 11 8 7 7 8 8 7 7 6 7 6 4 5 6 5 5 2 1 3 5 6 2 5 6 4 5 3 1 2 1 1 3 3 2 2 2 3 3 3 1 1 3 2 5 9 9 8 9 3 11 19 23 25 23 20 18 17 16 16 15 14
14 16 18 18 17 17 19 19 17 15 15 16 14 10 10 10 9 13 16 16 15 15 14 14 13 12 12 9 7 6 4 6 6 5 5 3 3 2 2 5 7 3 4 4 3 4 6 3 3 3 2 2 3 2 3 2 1 1 3 3 1 2 3 4 3 4 2 1 4 4 6 9 9 7 7 3 9 15 19 22 20 18 16 15 14 13 13 13
15 18 20 19 17 18 19 19 17 16 15 12 10 10 10 9 12 15 15 14 12 12 11 11 11 10 9 7 5 5 4 5 5 4 4 2 3 4 5 7 6 2 6 5 4 4 3 1 3 1 3 3 5 5 5 3 3 2 2 3 1 2 1 1 3 5 3 1 3 3 4 7 6 6 6 5 9 11 12 15 16 16 16 14 12 11 11 11
17 19 20 19 17 18 20 20 18 15 12 10 9 9 11 14 17 15 14 13 8 7 10 10 9 8 7 6 5 5 7 8 7 6 5 3 5 6 6 5 5 4 5 3 6 7 2 1 1 2 4 4 3 5 5 4 2 3 1 4 2 1 1 2 3 5 4 2 1 3 4 5 4 5 6 4 6 10 10 12 13 14 15 14 12 11 10 10
17 19 20 19 17 19 21 19 18 14 9 9 10 11 16 18 17 13 10 9 4 3 5 6 6 6 5 5 4 5 9 9 9 7 6 6 5 5 5 4 5 3 2 1 8 8 3 2 3 3 6 6 3 2 2 4 1 2 1 3 4 3 1 3 5 4 4 3 2 4 4 5 5 4 7 4 4 7 8 10 12 12 12 13 12 9 7 8
17 18 20 19 17 19 19 18 17 12 7 10 14 17 19 16 12 9 6 6 2 2 1 2 3 3 3 3 3 5 5 5 8 7 5 6 4 4 4 4 5 3 5 3 6 4 1 3 4 4 5 6 4 1 1 4 3 1 1 4 5 5 3 3 4 3 2 1 2 4 4 4 6 5 7 4 5 7 6 7 11 9 9 11 9 7 7 8
16 18 20 19 17 18 17 15 16 12 8 14 19 19 15 10 7 4 4 5 1 1 1 1 1 1 2 2 2 4 2 0 4 7 5 5 3 3 2 2 4 3 3 4 3 1 1 3 5 6 5 5 3 1 2 3 4 0 2 5 5 4 3 2 4 3 1 3 3 5 4 2 4 6 6 3 3 7 7 8 10 8 8 9 8 8 10 9
17 18 20 20 18 17 14 14 16 12 8 16 21 16 9 5 2 0 4 4 1 1 2 1 2 3 4 4 4 5 3 2 3 4 5 5 3 2 2 1 5 4 3 2 1 2 2 2 2 3 4 2 2 2 2 2 2 2 3 4 3 4 4 3 4 3 1 1 4 4 2 0 4 6 5 2 2 6 7 8 10 8 8 9 10 10 10 9
18 19 20 20 18 15 12 14 16 11 9 18 20 11 5 2 1 2 5 3 1 2 2 2 3 2 3 5 5 6 5 4 3 2 4 5 3 3 5 7 11 10 8 5 3 2 2 2 1 3 2 2 3 2 2 1 1 1 3 3 4 4 4 3 4 3 2 3 4 5 2 0 4 5 3 2 2 7 8 8 11 12 10 10 11 10 9 8
20 20 21 20 17 14 13 15 14 11 13 19 17 8 1 2 3 5 2 2 1 1 1 2 2 0 2 3 5 6 4 4 4 4 4 6 5 7 11 9 9 9 7 8 5 1 2 3 2 2 2 2 2 1 1 1 1 1 3 4 4 4 4 3 2 3 4 3 5 5 1 1 3 5 4 3 4 7 6 5 9 12 13 13 12 10 10 8
20 21 21 18 14 13 14 15 13 13 17 19 15 7 2 2 5 5 2 3 2 1 1 1 1 2 4 3 2 4 4 4 4 4 3 4 5 6 9 5 3 4 5 6 5 3 3 3 1 1 1 1 1 1 1 1 1 2 3 3 3 3 3 3 4 4 3 3 6 5 3 2 2 5 5 7 7 6 8 7 9 15 17 16 14 12 11 9
21 22 20 15 13 13 14 14 14 17 19 17 13 7 2 2 1 1 2 1 1 1 1 0 1 2 3 3 2 3 2 3 5 5 2 1 3 2 3 3 3 3 4 2 2 4 3 1 1 1 0 1 1 1 1 2 3 4 2 4 4 2 4 2 3 1 2 5 4 2 2 1 5 8 7 8 9 10 13 14 15 20 21 18 15 13 11 10
22 23 21 15 13 13 13 14 17 20 18 14 11 6 5 5 2 3 1 1 0 1 1 2 2 3 2 3 2 3 1 1 4 4 1 0 3 1 2 2 4 3 1 2 1 3 3 3 2 1 1 1 2 2 1 1 2 2 2 3 3 2 3 2 4 2 3 4 2 3 2 2 5 6 6 9 12 15 18 16 15 18 18 17 15 13 12 11
22 22 21 17 13 12 12 14 19 20 15 11 8 4 5 2 4 3 1 3 2 1 2 2 3 4 4 2 1 3 1 1 3 3 2 2 3 1 3 2 1 4 4 2 1 2 1 3 2 1 1 0 0 2 3 2 1 2 3 4 2 3 4 3 4 3 3 3 3 3 2 3 3 3 5 8 11 13 15 13 13 15 14 14 14 14 14 13
21 21 21 18 14 12 11 15 21 19 12 8 4 6 3 4 3 2 3 4 2 1 2 2 4 5 4 3 2 1 2 1 2 3 3 1 2 2 2 3 3 3 5 2 2 2 1 4 3 1 1 1 0 1 1 1 1 2 2 3 1 2 4 2 3 5 2 2 3 2 3 4 4 5 6 4 5 9 12 12 13 15 15 15 16 17 16 15
19 19 19 19 16 13 11 14 20 18 11 5 5 3 4 4 2 3 4 4 4 4 4 3 4 5 2 3 3 2 0 1 1 2 1 1 3 4 3 3 4 4 5 4 3 2 0 4 3 2 1 1 1 1 1 0 1 1 1 1 3 3 5 4 1 1 3 1 3 2 3 5 3 5 6 4 1 6 9 12 15 17 17 18 19 19 18 17
19 17 17 17 17 15 13 14 18 19 13 5 5 2 5 2 2 4 4 4 5 7 7 3 2 3 2 2 2 3 1 1 2 1 1 2 2 4 3 1 3 3 3 3 3 3 2 3 3 2 0 1 0 1 2 0 1 1 1 4 3 1 3 3 0 3 4 1 4 2 4 5 2 3 5 3 4 7 8 12 16 17 19 21 22 21 19 18
18 16 14 15 15 15 15 14 15 18 12 5 2 3 3 2 2 4 5 5 5 5 5 3 2 2 3 3 3 3 1 1 1 1 1 2 2 3 3 1 2 2 1 3 1 0 3 1 5 1 1 3 2 1 2 1 0 1 2 1 0 2 1 2 2 1 1 2 4 4 4 4 4 4 4 5 10 11 11 11 13 17 23 25 25 23 21 19
17 14 12 13 15 16 16 15 15 16 10 4 2 3 1 2 3 5 7 5 4 4 3 4 2 2 3 5 3 3 2 3 3 1 1 1 2 2 2 1 2 2 2 4 2 1 3 1 5 3 1 2 2 0 2 1 1 0 1 2 1 3 3 1 2 3 2 1 3 4 5 3 6 6 7 11 14 14 12 10 13 23 29 29 27 24 23 22
17 11 9 13 15 15 16 16 15 13 7 2 4 3 1 2 4 6 8 5 3 2 2 4 3 3 3 3 3 3 2 2 4 3 2 2 1 2 1 1 3 4 2 2 1 1 3 1 4 4 3 1 1 2 5 4 3 2 1 1 1 1 2 1 1 2 3 2 2 1 4 6 7 5 8 12 11 13 15 13 18 27 31 29 28 26 24 23
17 7 7 15 16 15 19 16 10 7 4 1 2 2 1 3 5 7 8 5 2 2 2 4 4 4 4 3 3 3 3 2 3 2 2 3 2 1 1 3 4 5 4 1 0 1 1 2 3 2 2 2 5 4 3 4 4 4 4 4 3 3 3 2 3 2 2 2 4 3 3 9 7 4 6 8 7 11 17 20 22 28 31 29 27 25 24 22
17 5 7 17 16 18 21 11 2 2 4 3 3 2 3 5 5 6 7 5 2 2 2 3 3 3 4 3 3 4 4 3 3 2 2 4 4 2 3 5 5 5 5 2 2 2 2 3 2 2 4 4 5 3 2 2 2 3 2 2 3 3 5 5 4 4 1 1 2 3 1 8 7 4 6 8 10 12 16 20 24 27 29 29 26 24 24 22
15 6 11 18 17 21 18 4 2 0 2 3 4 4 5 5 4 5 6 4 2 2 1 1 1 2 2 2 3 4 5 4 4 4 3 4 2 2 5 6 5 6 4 1 1 2 2 3 2 3 4 3 4 2 1 1 1 1 3 2 3 3 3 5 5 3 2 3 2 2 2 8 7 4 5 8 9 10 11 17 24 26 27 27 26 25 25 23
14 7 11 17 18 20 14 2 2 3 0 2 4 4 4 3 4 5 4 4 4 3 2 1 1 2 2 2 4 4 4 3 4 4 2 3 2 2 5 6 5 6 3 1 3 3 2 1 3 1 5 6 6 5 3 2 0 3 4 2 3 3 4 3 2 2 1 4 6 5 5 8 6 5 6 6 6 6 8 14 20 23 24 26 27 26 26 25
13 6 8 15 17 16 9 3 5 5 2 3 3 3 3 2 3 5 2 4 4 3 3 2 3 4 3 3 4 2 1 1 1 2 1 2 2 1 4 5 5 5 2 1 3 4 3 1 4 4 2 3 3 2 3 3 1 2 2 3 5 5 5 3 2 2 3 4 5 6 7 8 7 7 7 7 6 6 7 10 17 22 22 25 27 28 28 28
14 4 4 9 11 12 8 4 5 6 5 5 3 2 3 2 3 4 2 3 4 3 4 3 4 5 3 2 3 1 1 2 2 2 2 3 2 0 3 4 4 5 2 2 3 4 2 0 3 6 6 6 6 6 5 3 2 2 3 4 5 5 5 5 4 3 5 3 3 8 8 8 13 11 7 7 6 6 9 11 16 21 23 25 28 29 29 29
11 4 6 8 5 8 7 6 7 8 7 9 5 4 5 3 1 2 2 2 4 5 3 2 3 4 3 4 4 1 2 2 2 2 3 3 2 1 2 3 3 5 3 3 4 4 4 1 4 6 7 8 7 6 4 3 3 5 5 5 6 7 6 6 5 6 5 4 6 9 7 7 18 17 10 8 8 8 12 17 20 23 25 27 29 29 30 30
9 5 12 15 7 5 6 8 11 10 8 10 5 4 7 4 2 4 4 2 3 5 4 0 3 6 7 8 5 3 3 1 1 4 2 2 2 2 1 2 3 5 5 4 4 4 4 3 5 4 5 7 4 4 3 3 4 4 5 7 7 8 9 11 13 10 8 7 11 7 7 10 17 16 11 11 12 13 18 21 23 25 26 27 29 31 33 33
10 5 12 16 9 7 10 11 14 13 9 7 3 2 7 8 6 5 3 3 1 5 5 4 7 8 8 7 6 5 5 3 3 6 3 3 2 2 2 1 3 4 5 4 3 3 3 3 4 3 4 7 4 3 2 4 4 4 7 9 7 9 13 14 13 11 10 13 16 9 7 13 18 18 16 16 16 17 20 21 22 25 27 30 32 34 35 36
16 9 11 14 7 6 11 12 14 12 5 4 3 3 6 9 9 6 4 7 4 3 6 7 8 8 9 7 6 5 9 9 5 3 7 6 2 4 4 3 4 4 2 2 1 2 3 3 2 4 2 7 4 3 1 1 3 6 10 8 5 7 9 10 10 7 7 13 16 12 12 17 22 23 21 23 22 19 21 25 27 28 29 30 34 36 37 38
21 14 13 14 7 5 9 10 11 9 3 4 6 4 4 8 11 8 6 8 8 5 10 13 9 6 5 5 6 9 12 10 4 1 9 10 5 6 6 4 8 7 2 3 2 2 3 2 1 4 1 6 3 4 4 4 2 7 13 12 10 9 7 8 7 6 9 13 13 10 9 14 20 17 13 19 21 21 25 30 30 31 31 31 34 37 39 40
23 16 14 14 7 5 8 7 7 7 5 7 9 7 5 9 13 13 6 7 9 8 11 16 12 8 4 5 11 16 14 9 1 0 8 9 4 5 6 7 11 10 6 5 2 1 4 3 1 3 1 6 5 3 3 5 5 7 11 11 14 14 9 7 6 8 13 12 8 8 12 15 15 10 7 13 15 18 24 27 26 27 29 30 34 36 37 39
Wind_Direction
121 127 133 136 137 136 134 134 136 138 137 137 137 134 132 129 126 124 123 120 114 109 106 103 99 95 95 96 101 111 133 155 140 124 102 75 71 78 79 82 88 95 104 113 117 119 117 108 106 110 107 97 94 99 100 91 85 87 81 69 89 132 156 172 183 179 144 141 160 160 168 160 141 159 158 147 170 180 183 212 228 223 222 222 211 197 186 181
121 123 129 133 135 134 133 135 138 140 140 140 140 137 134 131 130 129 129 127 120 113 108 104 101 100 102 102 105 110 123 144 125 103 82 73 80 79 78 87 91 95 112 121 119 119 115 110 115 117 106 96 91 99 97 77 64 62 92 87 104 201 191 186 170 157 131 148 160 158 175 175 166 170 164 162 184 182 186 205 215 222 224 214 199 194 198 201
124 124 127 132 134 134 134 138 140 142 142 143 142 139 137 135 135 134 133 134 128 121 114 109 108 107 107 107 110 108 116 128 106 75 73 86 84 79 85 95 94 102 122 127 123 123 122 122 131 121 104 94 80 92 89 69 57 47 77 88 232 185 113 139 149 143 138 151 154 157 179 175 170 175 180 197 194 195 205 198 202 223 223 207 204 205 208 213
124 126 129 132 136 136 138 142 143 145 145 146 145 141 140 138 137 137 137 138 134 128 123 120 118 114 112 112 115 106 104 109 72 42 73 85 77 83 95 101 96 102 114 120 123 124 128 133 137 118 99 87 73 81 68 48 66 44 61 117 157 132 89 123 140 133 135 148 161 163 169 172 172 184 200 190 168 226 229 211 214 226 215 205 209 211 213 222
122 125 130 136 141 142 144 145 146 148 148 148 146 144 143 140 139 138 139 142 138 132 128 130 132 123 123 126 126 116 96 91 30 35 80 77 72 89 105 106 100 106 109 113 116 119 129 134 128 107 89 77 60 67 55 60 87 68 57 108 121 122 97 125 138 135 140 146 163 162 166 179 177 196 215 199 184 243 242 221 226 216 202 204 209 213 216 222
120 124 130 139 145 147 147 146 148 149 150 150 147 146 144 142 141 140 142 143 138 133 126 127 133 122 131 138 141 164 109 96 7 56 82 79 78 95 110 106 102 114 116 115 119 124 130 130 118 94 79 67 54 65 66 62 91 92 79 94 104 117 111 127 142 146 154 150 159 168 182 184 180 210 221 215 218 248 254 218 213 199 196 201 206 214 217 222
120 123 130 139 144 147 147 147 150 151 152 150 147 147 146 145 143 142 143 142 139 132 121 110 103 87 104 128 149 111 103 90 60 75 87 89 89 104 109 96 91 116 134 122 125 134 135 126 111 91 81 76 68 75 80 81 97 109 109 102 103 110 109 121 144 153 164 160 165 175 189 191 196 222 222 224 230 241 238 209 207 197 198 208 214 218 221 226
123 125 131 137 141 144 146 147 150 152 153 149 147 148 147 146 143 145 144 143 143 132 122 105 84 79 86 133 131 103 87 66 66 85 90 91 96 111 110 96 87 117 138 121 121 130 122 113 105 87 75 82 96 100 95 88 80 74 114 123 110 107 108 115 137 151 164 163 164 181 203 212 218 237 237 232 230 232 228 221 217 202 203 216 223 223 223 227
128 129 132 135 139 143 147 149 151 153 152 148 148 147 145 145 145 147 146 146 143 132 124 102 84 89 92 146 129 99 61 51 72 81 87 93 98 108 110 104 102 112 119 115 118 122 116 106 101 111 108 105 109 108 100 86 60 91 126 127 116 111 117 124 138 148 159 163 161 196 227 232 226 248 255 239 229 226 224 223 222 211 212 221 228 231 233 236
133 132 132 132 136 141 148 151 152 151 149 146 146 145 143 144 147 149 148 147 140 131 121 97 104 112 114 145 125 88 39 71 76 78 84 85 89 101 115 111 110 115 116 115 112 109 108 106 112 116 111 107 105 85 58 99 126 133 122 117 114 114 126 138 146 152 162 175 188 206 231 239 226 235 256 235 216 214 216 220 221 218 222 228 235 239 244 249
136 134 132 131 132 137 146 151 152 148 145 144 144 144 143 143 148 150 149 144 134 129 117 100 116 122 138 145 115 88 74 85 81 84 81 81 91 107 114 97 95 109 126 118 100 103 109 111 113 107 96 104 101 75 82 112 125 126 117 103 91 102 136 154 153 161 171 199 224 229 256 253 220 224 251 229 204 207 213 217 219 222 229 232 239 244 250 258
142 139 135 133 133 135 142 146 147 143 141 141 143 145 143 145 149 151 148 137 127 124 116 103 105 128 156 124 100 96 98 90 90 88 85 95 100 102 96 88 86 88 94 107 110 113 112 110 112 103 114 122 111 80 101 123 123 117 112 94 37 36 59 211 188 186 199 225 231 246 304 283 232 229 247 223 202 207 211 217 222 223 230 234 241 248 254 265
148 145 140 137 136 137 140 142 142 139 138 140 145 147 143 146 149 151 146 132 125 120 108 105 111 142 148 103 89 102 102 91 92 90 91 95 95 99 99 94 89 85 82 106 117 120 101 53 126 125 125 121 109 116 128 127 115 102 91 89 58 17 341 229 206 218 215 238 233 190 293 278 253 233 226 209 204 205 210 219 224 224 228 232 238 248 256 264
152 150 146 141 140 142 142 143 142 137 136 139 146 149 145 146 146 149 144 131 127 116 100 115 127 162 134 100 95 108 101 94 97 99 97 96 102 105 104 100 91 91 95 106 112 106 87 109 130 122 115 113 118 123 122 104 89 86 73 65 87 65 296 241 210 209 188 242 223 135 215 259 271 240 210 206 207 207 214 221 225 228 230 232 237 248 258 260
156 155 150 144 142 145 147 146 142 136 134 136 143 147 144 143 143 146 144 135 130 112 99 105 129 154 120 100 107 111 102 106 112 110 103 105 113 106 102 102 96 98 101 101 100 98 108 127 124 107 103 118 123 119 86 33 32 57 88 317 337 121 275 283 229 200 192 238 193 126 231 258 279 250 209 208 208 211 222 228 229 234 233 236 243 248 258 261
159 158 153 148 144 145 149 148 142 136 134 134 139 142 142 143 142 143 142 138 132 114 101 97 136 143 116 96 117 114 111 119 113 108 107 110 113 108 106 105 105 106 104 103 105 107 116 122 108 101 108 120 120 103 61 44 7 4 72 251 279 169 250 303 241 211 195 214 195 163 234 270 289 252 205 208 209 213 226 235 235 239 241 242 247 250 259 265
159 160 156 152 147 145 149 150 144 138 134 134 138 140 144 144 141 143 142 140 135 122 119 122 134 129 104 105 125 114 116 117 107 109 113 114 113 112 113 114 115 115 111 111 115 114 113 114 112 109 105 96 80 92 75 36 324 328 21 245 253 192 175 284 262 240 186 169 246 185 230 255 271 275 223 208 213 216 225 238 240 241 245 246 249 253 260 269
160 160 157 154 152 148 149 152 148 141 136 136 139 143 146 143 143 143 136 134 130 124 128 129 133 116 86 126 131 117 116 109 111 116 114 114 112 114 120 122 124 122 118 113 104 98 95 106 122 114 38 41 19 71 93 195 186 189 176 174 251 234 239 227 225 241 118 94 256 289 266 262 276 286 259 215 214 220 228 240 244 244 247 248 251 256 262 269
164 162 159 155 154 152 152 155 153 147 141 140 142 145 145 143 142 138 133 137 124 113 128 115 113 120 131 144 134 124 117 108 116 116 110 110 110 119 123 124 132 129 117 108 48 61 81 86 89 78 51 23 5 104 144 193 148 151 177 164 178 195 247 249 248 249 120 55 262 235 253 274 287 290 291 241 217 222 233 241 246 247 247 248 251 257 263 267
167 167 166 160 157 157 156 158 158 152 145 144 145 144 146 143 135 118 113 110 95 89 99 92 91 111 126 134 133 124 114 110 117 116 111 112 118 123 117 122 134 101 69 72 10 43 68 75 76 144 178 215 236 177 164 168 111 116 143 123 161 183 250 265 270 275 140 82 264 231 254 278 276 278 306 293 216 219 231 237 244 247 247 250 253 258 262 267
172 174 172 166 162 159 158 159 157 152 146 146 147 146 152 150 139 123 105 85 79 86 94 98 101 110 118 128 133 122 112 111 113 115 108 109 124 122 105 113 110 65 20 360 95 44 63 86 120 212 208 226 254 250 14 17 76 161 162 134 131 196 255 253 256 287 104 107 266 297 321 286 269 273 305 320 198 214 226 232 240 245 248 253 256 261 265 271
174 175 173 168 164 160 158 157 153 151 147 149 153 148 154 157 154 151 126 90 78 86 90 98 103 107 112 117 123 118 114 103 95 102 100 101 118 113 116 86 84 81 354 21 82 42 47 95 199 232 262 275 309 21 90 78 48 129 175 131 103 250 268 273 295 324 38 120 274 341 349 287 275 282 288 245 205 222 231 235 243 250 255 259 261 268 273 276
169 168 168 166 163 159 158 155 151 151 150 154 158 150 153 154 147 148 129 98 79 76 86 97 97 100 104 100 102 110 108 86 63 52 49 62 84 85 101 80 71 76 3 18 120 94 68 211 226 290 356 13 10 30 104 117 43 67 115 118 224 286 3 255 301 329 323 196 270 341 344 290 299 312 292 252 229 239 245 245 253 256 256 261 263 270 275 279
165 163 164 163 161 161 159 157 153 149 148 154 153 150 149 143 140 137 115 95 76 69 82 85 84 89 91 86 82 91 95 78 51 39 33 60 95 85 91 79 67 62 4 13 119 105 94 323 354 14 18 62 41 19 87 117 9 350 122 134 188 278 56 234 283 329 328 355 327 14 358 306 327 337 301 281 247 252 255 254 256 251 250 256 259 264 274 284
163 164 164 162 163 164 162 161 156 147 138 144 148 148 146 140 137 132 107 84 57 45 65 70 75 77 84 82 69 86 94 73 49 44 47 65 91 97 89 68 59 84 270 84 93 89 78 5 13 33 33 63 94 10 77 146 171 313 251 157 165 171 144 316 334 10 27 11 330 37 29 293 314 313 267 284 302 269 260 257 256 251 249 251 253 259 269 274
163 168 168 166 166 166 165 164 161 154 137 143 148 146 146 144 134 129 102 68 36 313 352 69 70 71 91 65 63 96 89 54 46 49 64 64 67 108 95 42 54 123 196 137 88 98 95 19 46 82 63 51 61 4 237 161 136 8 228 160 149 138 101 26 17 45 88 235 297 53 112 250 317 301 251 277 310 291 286 267 258 252 247 242 240 238 230 239
165 169 172 171 169 167 167 169 169 166 149 150 151 144 143 141 131 130 69 55 21 252 167 132 71 118 111 47 56 112 103 65 68 47 55 63 42 120 128 10 67 100 167 132 79 46 44 28 44 67 64 46 39 283 230 144 126 228 180 134 120 115 116 98 74 71 201 241 319 22 103 187 298 273 262 277 274 290 302 279 263 244 227 220 212 211 213 225
168 168 171 172 170 168 168 171 172 170 160 159 154 143 131 122 136 157 82 92 247 122 116 142 116 104 103 90 72 87 95 116 101 33 38 58 39 111 130 139 127 103 54 108 198 303 27 35 43 59 58 61 229 248 241 160 122 254 186 126 106 118 133 123 91 83 343 350 307 323 50 174 267 275 307 8 195 267 277 261 251 227 202 199 200 205 214 230
169 167 168 168 168 169 170 169 171 173 171 166 160 147 115 85 352 47 83 121 229 86 111 142 127 94 87 95 61 59 77 62 65 35 34 54 46 80 98 107 120 102 50 55 149 187 33 46 95 111 118 222 233 249 257 190 75 204 146 87 57 74 86 77 85 106 42 30 255 269 16 52 272 279 311 37 226 249 249 247 238 217 198 197 203 210 221 235
171 168 166 166 168 172 171 168 170 173 170 169 167 163 123 32 63 74 75 219 164 95 107 141 172 309 39 73 34 29 53 45 47 61 60 74 78 95 105 106 111 100 47 42 82 113 40 71 72 87 143 211 188 199 300 33 74 126 100 63 43 35 46 52 54 88 62 338 254 253 282 138 281 278 230 198 223 211 204 240 234 213 203 200 203 216 227 233
173 171 167 165 169 173 170 169 169 167 169 172 174 179 188 20 70 96 195 222 126 101 66 63 291 29 60 93 59 8 23 31 23 42 66 72 69 87 98 102 99 71 21 24 44 351 12 65 14 32 176 206 125 131 350 11 56 85 82 73 61 349 13 31 352 36 86 270 261 261 280 166 212 264 238 226 243 212 185 196 205 203 202 201 205 218 224 224
174 173 170 165 165 167 167 169 167 163 167 171 179 190 153 57 32 154 233 315 69 214 156 88 299 76 75 78 55 341 3 21 11 38 84 59 43 57 90 163 176 50 342 310 41 349 331 283 297 14 221 201 122 49 4 352 31 61 66 70 75 346 2 9 312 347 196 246 268 279 294 214 227 248 238 229 242 228 204 198 199 199 199 201 207 214 215 213
177 175 173 167 158 158 162 167 165 162 165 170 179 181 89 81 214 217 227 7 29 248 100 90 81 86 87 81 33 320 15 353 351 33 80 34 46 349 312 208 171 103 353 213 84 3 321 312 324 359 275 195 145 140 170 307 37 93 148 105 105 87 48 308 278 295 259 254 282 284 281 274 269 262 230 226 231 219 209 206 206 203 202 205 207 209 211 209
180 179 180 174 158 153 158 164 166 161 162 169 164 121 83 118 216 191 221 245 239 340 44 94 87 57 52 80 261 272 108 7 331 27 22 27 48 325 293 284 206 98 98 134 170 161 250 293 284 185 227 358 285 179 170 176 137 179 173 128 138 155 144 229 244 218 252 277 297 296 268 196 226 259 239 245 245 220 205 204 203 203 205 205 205 207 209 208
182 183 186 184 172 163 156 163 170 164 162 168 115 79 124 212 225 172 203 220 213 359 34 61 83 67 23 337 312 266 154 311 340 38 28 39 166 201 221 225 218 129 113 152 225 150 181 255 256 333 256 158 292 229 163 98 144 218 158 105 127 173 145 159 199 191 205 320 300 272 232 214 220 273 288 294 254 214 197 194 191 194 198 198 204 209 209 208
183 186 190 192 189 181 167 169 174 174 177 160 80 78 191 213 214 170 165 153 154 152 122 65 74 84 357 301 330 357 52 282 12 52 357 262 199 202 210 211 207 170 136 153 207 159 135 275 291 10 310 156 84 270 266 20 224 205 105 202 233 152 115 113 212 297 71 34 281 251 256 292 316 289 309 18 206 213 199 196 194 194 196 199 207 210 210 209
184 187 192 194 195 191 184 178 176 183 190 148 95 188 210 201 189 174 147 128 145 142 119 107 138 150 182 215 277 302 329 321 357 63 235 266 235 201 204 215 198 188 152 149 207 180 144 275 299 63 85 277 325 299 316 292 178 108 148 243 251 121 91 98 98 353 43 227 280 284 251 289 330 281 313 350 229 234 225 211 206 202 199 203 209 210 210 211
184 188 193 194 194 193 189 183 179 184 181 123 102 223 201 168 192 178 157 144 147 125 104 134 177 178 176 174 232 247 169 208 290 52 181 253 267 191 165 163 184 197 166 136 181 256 126 260 297 335 169 297 326 295 308 333 135 167 187 244 165 146 142 67 127 227 20 268 286 305 290 262 213 224 256 227 217 224 226 217 215 212 206 208 211 210 209 210
181 186 194 196 192 190 188 184 179 175 160 126 197 223 176 186 198 175 168 164 153 121 120 174 159 85 157 163 184 209 179 188 199 171 176 202 259 207 160 161 173 177 164 136 149 242 104 131 289 281 228 308 350 214 236 268 10 356 291 329 356 158 173 156 145 174 190 251 274 309 325 272 229 217 200 208 214 212 210 209 217 216 210 210 211 208 207 209
180 181 192 193 187 186 182 175 169 163 144 148 196 186 173 193 180 170 167 163 147 122 158 183 146 119 162 165 175 176 149 161 163 164 222 212 235 253 205 157 145 157 161 106 126 104 67 96 257 291 315 294 255 213 201 187 154 130 173 249 270 197 162 193 287 151 148 170 198 268 305 270 246 212 193 211 218 209 204 204 214 216 212 211 212 209 208 211
178 179 192 183 176 174 169 161 160 156 128 131 180 165 186 170 158 163 163 156 132 102 149 154 140 148 154 152 195 178 131 134 160 169 244 217 209 278 223 158 142 145 139 92 209 187 98 147 195 290 320 221 243 249 191 178 165 154 179 196 182 164 130 125 288 290 114 159 181 164 270 272 257 210 210 230 237 226 217 210 214 217 213 211 212 211 212 215
178 179 182 174 170 169 163 150 124 128 114 146 163 131 150 149 143 158 164 160 120 77 111 119 117 143 153 156 180 164 140 143 175 187 220 210 203 216 178 155 149 151 143 154 227 200 136 116 123 248 230 222 261 266 157 190 164 141 203 212 145 142 128 136 221 252 154 181 171 116 253 273 263 224 237 263 272 260 237 221 219 220 215 213 213 212 214 217
180 172 169 171 168 167 161 128 351 89 83 141 140 115 134 139 137 156 171 178 156 99 107 112 114 139 185 179 146 161 175 173 179 188 210 219 219 193 171 158 159 162 144 145 198 146 125 116 104 287 288 312 317 316 169 223 89 122 261 217 150 169 153 151 179 184 167 193 158 100 269 271 275 272 271 284 288 275 245 226 222 220 216 214 212 212 214 216
173 154 164 171 171 171 169 156 164 174 314 127 106 92 121 132 152 159 181 200 184 154 139 155 165 144 162 133 117 169 192 176 190 202 203 201 192 154 167 167 177 180 169 185 157 151 205 178 107 5 331 338 342 349 334 307 209 222 247 219 187 168 120 127 145 97 267 224 161 145 245 256 274 315 310 302 310 288 246 225 220 219 216 212 210 212 214 214
161 134 159 174 178 181 189 211 166 155 157 131 106 128 133 96 167 172 187 187 175 160 146 149 150 132 114 98 85 109 165 93 210 200 127 202 213 165 170 181 193 192 202 231 152 153 194 178 124 139 202 251 266 288 266 249 238 236 234 213 209 182 146 160 137 114 245 241 158 171 235 259 283 322 325 310 312 294 254 223 215 218 218 213 212 213 214 215
165 148 160 169 184 194 207 235 177 149 155 150 120 165 158 97 175 180 149 164 175 157 129 122 140 123 73 105 111 110 219 29 37 138 169 225 235 210 173 186 193 188 171 130 150 141 119 234 179 167 189 209 202 220 224 165 139 216 223 212 207 193 163 133 113 171 200 188 201 222 236 285 289 283 283 282 276 263 248 226 214 217 217 215 214 215 217 219
174 181 173 158 178 206 215 231 192 163 169 173 163 173 168 136 137 157 155 195 193 169 134 80 157 159 150 156 146 185 199 63 39 164 183 203 215 17 183 187 183 191 179 141 162 136 91 285 234 188 216 226 199 217 229 160 190 213 208 213 204 191 164 145 191 216 163 136 257 238 199 251 271 265 249 242 243 243 241 230 221 219 218 217 216 216 219 221
181 187 180 173 176 194 198 214 199 178 168 172 164 152 163 162 158 172 191 202 183 183 173 328 245 207 187 172 154 153 164 84 304 217 172 153 187 48 64 207 196 195 189 165 183 155 115 237 231 182 250 259 220 230 227 189 234 224 201 216 201 179 177 189 216 213 162 194 248 237 176 222 257 266 254 233 226 234 243 239 233 229 224 220 218 218 219 221
174 158 175 181 191 189 183 191 185 173 167 167 159 148 169 179 190 191 170 118 178 231 196 208 247 220 193 181 150 147 173 170 218 227 188 139 183 151 107 217 209 193 181 162 191 180 144 230 222 164 277 284 275 274 229 197 259 272 239 230 201 190 199 206 225 220 198 232 254 262 262 259 260 261 260 256 249 246 254 255 246 239 233 227 223 222 222 224
181 170 169 174 177 166 170 172 166 164 170 178 191 204 177 178 192 203 176 156 175 222 184 210 244 209 188 189 164 179 204 180 152 199 179 149 162 197 192 193 168 162 174 163 178 180 178 241 217 117 309 294 301 342 354 183 238 260 263 251 202 210 225 228 245 237 219 248 259 265 277 274 266 263 265 269 263 249 247 250 247 246 243 236 230 227 227 228
191 187 178 172 161 141 159 162 154 153 173 199 197 200 184 193 194 183 189 203 195 172 187 204 203 159 161 187 198 231 224 189 131 122 178 173 174 191 204 192 157 146 158 185 165 146 170 236 359 86 344 283 302 1 334 328 308 264 270 258 216 209 220 221 226 209 205 229 246 259 265 260 264 271 270 263 253 237 237 242 245 248 247 240 236 233 232 233
190 189 184 174 166 163 163 149 140 158 192 199 190 183 190 207 195 173 179 242 223 206 215 207 177 130 119 189 217 235 228 202 197 116 177 186 192 185 195 188 168 160 161 163 154 158 160 160 151 128 195 269 290 343 331 342 334 271 261 237 208 206 218 236 248 224 211 211 218 234 238 246 265 288 280 261 243 226 236 245 248 252 251 246 243 242 241 240